Weather History for West Bend, WI

Change the Weather History Date:

Friday, April 26, 2013

  Actual Average Record
Temperature  
Mean Temperature 50 °F -  
Max Temperature 66 °F 60 °F 83 °F (1962)
Min Temperature 33 °F 37 °F 22 °F (1926)
Degree Days  
Heating Degree Days 16    
Moisture  
Dew Point 33 °F    
Average Humidity 50    
Maximum Humidity 81    
Minimum Humidity 30    
Precipitation  
Precipitation 0.00 in - - ()
Sea Level Pressure  
Sea Level Pressure 30.22 in    
Wind  
Wind Speed 7 mph (SSW)    
Max Wind Speed 23 mph    
Max Gust Speed 33 mph    
Visibility 10 miles    
Events      
Averages and records for this station are not official NWS values.
T = Trace of Precipitation, MM = Missing Value Source: NWS Daily Summary

Daily Weather History Graph

Daily Weather History Graph

Search for Another Location

Airport:

Trip Planner

Search our weather history database for the weather conditions in past years. The results will help you decide how hot, cold, wet, or windy it might be!

Date:

Astronomy

Apr. 26, 2013 Rise Set
Actual Time 5:52 AM CDT 7:48 PM CDT
Civil Twilight 5:21 AM CDT 8:19 PM CDT
Nautical Twilight 4:43 AM CDT 8:57 PM CDT
Astronomical Twilight 4:02 AM CDT 9:38 PM CDT
Moon 9:13 PM CDT (4/26) 6:18 AM CDT (4/26)
Length of Visible Light 14h 58m
Length of Day
13h 56m
Full, 99% of the Moon is Illuminated
Apr 26
Full
May 2
Last Quarter
May 9
New
May 17
First Quarter
May 24
Full

Hourly Weather History & Observations

Time (CDT) Temp. Windchill Dew Point Humidity Pressure Visibility Wind Dir Wind Speed Gust Speed Precip Events Conditions
12:15 AM 35.6 °F - 28.4 °F 75% 30.28 in 10.0 mi Calm Calm - N/A   Clear
12:35 AM 35.6 °F - 28.4 °F 75% 30.29 in 10.0 mi Calm Calm - N/A   Clear
12:55 AM 35.6 °F - 28.4 °F 75% 30.28 in 10.0 mi Calm Calm - N/A   Clear
1:15 AM 35.6 °F - 28.4 °F 75% 30.28 in 10.0 mi Calm Calm - N/A   Clear
1:35 AM 35.6 °F - 28.4 °F 75% 30.27 in 10.0 mi Calm Calm - N/A   Clear
1:55 AM 33.8 °F - 28.4 °F 81% 30.27 in 10.0 mi Calm Calm - N/A   Clear
2:15 AM 35.6 °F - 28.4 °F 75% 30.26 in 10.0 mi Calm Calm - N/A   Clear
2:35 AM 35.6 °F - 28.4 °F 75% 30.27 in 10.0 mi Calm Calm - N/A   Clear
2:55 AM 35.6 °F - 28.4 °F 75% 30.26 in 10.0 mi Calm Calm - N/A   Clear
3:15 AM 35.6 °F 32.8 °F 28.4 °F 75% 30.27 in 10.0 mi South 3.5 mph - N/A   Clear
3:35 AM 35.6 °F 31.7 °F 28.4 °F 75% 30.27 in 10.0 mi South 4.6 mph - N/A   Clear
3:55 AM 35.6 °F 31.7 °F 28.4 °F 75% 30.27 in 10.0 mi South 4.6 mph - N/A   Scattered Clouds
4:15 AM 37.4 °F 33.8 °F 26.6 °F 65% 30.27 in 10.0 mi South 4.6 mph - N/A   Overcast
4:35 AM 37.4 °F 31.4 °F 26.6 °F 65% 30.27 in 10.0 mi South 8.1 mph - N/A   Mostly Cloudy
4:55 AM 37.4 °F 32.1 °F 26.6 °F 65% 30.27 in 10.0 mi South 6.9 mph - N/A   Scattered Clouds
5:15 AM 37.4 °F 34.9 °F 26.6 °F 65% 30.27 in 10.0 mi South 3.5 mph - N/A   Mostly Cloudy
5:35 AM 37.4 °F 33.8 °F 26.6 °F 65% 30.27 in 10.0 mi South 4.6 mph - N/A   Overcast
6:15 AM 39.2 °F 35.9 °F 26.6 °F 61% 30.28 in 10.0 mi South 4.6 mph - N/A   Overcast
6:35 AM 39.2 °F - 26.6 °F 61% 30.29 in 10.0 mi Calm Calm - N/A   Overcast
6:55 AM 39.2 °F 37.0 °F 26.6 °F 61% 30.29 in 10.0 mi ESE 3.5 mph - N/A   Overcast
7:15 AM 41.0 °F - 26.6 °F 57% 30.30 in 10.0 mi Calm Calm - N/A   Overcast
7:35 AM 41.0 °F 37.1 °F 26.6 °F 57% 30.30 in 10.0 mi SSE 5.8 mph - N/A   Mostly Cloudy
7:55 AM 42.8 °F 38.6 °F 28.4 °F 57% 30.29 in 10.0 mi SE 6.9 mph - N/A   Scattered Clouds
8:15 AM 44.6 °F 40.7 °F 28.4 °F 53% 30.28 in 10.0 mi SSE 6.9 mph - N/A   Scattered Clouds
8:35 AM 44.6 °F 39.7 °F 28.4 °F 53% 30.27 in 10.0 mi SSE 9.2 mph - N/A   Mostly Cloudy
8:55 AM 46.4 °F 41.9 °F 28.4 °F 50% 30.26 in 10.0 mi South 9.2 mph 18.4 mph N/A   Scattered Clouds
9:15 AM 50.0 °F - 30.2 °F 47% 30.26 in 10.0 mi SSE 9.2 mph - N/A   Clear
9:35 AM 51.8 °F - 30.2 °F 44% 30.26 in 10.0 mi South 11.5 mph 16.1 mph N/A   Clear
9:55 AM 53.6 °F - 30.2 °F 41% 30.25 in 10.0 mi South 13.8 mph 21.9 mph N/A   Clear
10:15 AM 53.6 °F - 30.2 °F 41% 30.24 in 10.0 mi South 17.3 mph 23.0 mph N/A   Clear
10:35 AM 55.4 °F - 32.0 °F 41% 30.24 in 10.0 mi South 15.0 mph 19.6 mph N/A   Clear
10:55 AM 59.0 °F - 32.0 °F 36% 30.23 in 10.0 mi SSW 13.8 mph 23.0 mph N/A   Scattered Clouds
11:15 AM 59.0 °F - 32.0 °F 36% 30.23 in 10.0 mi South 13.8 mph 23.0 mph N/A   Scattered Clouds
11:35 AM 60.8 °F - 32.0 °F 34% 30.22 in 10.0 mi SSW 15.0 mph 23.0 mph N/A   Clear
11:55 AM 62.6 °F - 32.0 °F 32% 30.21 in 10.0 mi South 16.1 mph 24.2 mph N/A   Clear
12:15 PM 62.6 °F - 32.0 °F 32% 30.20 in 10.0 mi SSW 19.6 mph 27.6 mph N/A   Clear
12:35 PM 64.4 °F - 33.8 °F 32% 30.19 in 10.0 mi SSW 17.3 mph 24.2 mph N/A   Clear
12:55 PM 64.4 °F - 32.0 °F 30% 30.18 in 10.0 mi South 20.7 mph 26.5 mph N/A   Clear
1:15 PM 66.2 °F - 33.8 °F 30% 30.17 in 10.0 mi SSW 19.6 mph 25.3 mph N/A   Clear
1:35 PM 64.4 °F - 35.6 °F 34% 30.17 in 10.0 mi South 20.7 mph 28.8 mph N/A   Clear
1:55 PM 64.4 °F - 35.6 °F 34% 30.17 in 10.0 mi South 17.3 mph 26.5 mph N/A   Clear
2:15 PM 64.4 °F - 35.6 °F 34% 30.17 in 10.0 mi SSW 21.9 mph 31.1 mph N/A   Clear
2:35 PM 66.2 °F - 35.6 °F 32% 30.16 in 10.0 mi SSW 17.3 mph 26.5 mph N/A   Clear
2:55 PM 66.2 °F - 35.6 °F 32% 30.15 in 10.0 mi SW 18.4 mph 29.9 mph N/A   Clear
3:15 PM 66.2 °F - 35.6 °F 32% 30.15 in 10.0 mi SSW 21.9 mph 29.9 mph N/A   Clear
3:35 PM 64.4 °F - 35.6 °F 34% 30.15 in 10.0 mi SSW 23.0 mph 33.4 mph N/A   Clear
3:55 PM 66.2 °F - 35.6 °F 32% 30.15 in 10.0 mi SW 19.6 mph 26.5 mph N/A   Clear
4:15 PM 66.2 °F - 35.6 °F 32% 30.15 in 10.0 mi SSW 19.6 mph 29.9 mph N/A   Clear
4:35 PM 64.4 °F - 37.4 °F 37% 30.15 in 10.0 mi SSW 23.0 mph 29.9 mph N/A   Scattered Clouds
4:55 PM 64.4 °F - 37.4 °F 37% 30.15 in 10.0 mi SW 17.3 mph 26.5 mph N/A   Scattered Clouds
5:15 PM 66.2 °F - 39.2 °F 37% 30.15 in 10.0 mi SSW 17.3 mph 23.0 mph N/A   Scattered Clouds
5:35 PM 66.2 °F - 39.2 °F 37% 30.15 in 10.0 mi SSW 17.3 mph 31.1 mph N/A   Mostly Cloudy
5:55 PM 66.2 °F - 37.4 °F 35% 30.15 in 10.0 mi SSW 21.9 mph 26.5 mph N/A   Mostly Cloudy
6:15 PM 64.4 °F - 39.2 °F 40% 30.15 in 10.0 mi SSW 18.4 mph 27.6 mph N/A   Scattered Clouds
6:35 PM 64.4 °F - 39.2 °F 40% 30.15 in 10.0 mi SSW 15.0 mph 25.3 mph N/A   Scattered Clouds
6:55 PM 64.4 °F - 37.4 °F 37% 30.16 in 10.0 mi SSW 16.1 mph 25.3 mph N/A   Scattered Clouds
7:15 PM 62.6 °F - 37.4 °F 39% 30.17 in 10.0 mi SSW 13.8 mph - N/A   Clear
7:35 PM 62.6 °F - 35.6 °F 37% 30.18 in 10.0 mi SW 15.0 mph 24.2 mph N/A   Clear
7:55 PM 60.8 °F - 35.6 °F 39% 30.19 in 10.0 mi SSW 16.1 mph 26.5 mph N/A   Clear
8:15 PM 60.8 °F - 35.6 °F 39% 30.20 in 10.0 mi SW 12.7 mph 21.9 mph N/A   Clear
8:35 PM 59.0 °F - 37.4 °F 45% 30.21 in 10.0 mi SSW 10.4 mph - N/A   Clear
8:55 PM 59.0 °F - 37.4 °F 45% 30.21 in 10.0 mi SSW 8.1 mph - N/A   Clear
9:15 PM 59.0 °F - 37.4 °F 45% 30.22 in 10.0 mi SSW 11.5 mph - N/A   Clear
9:35 PM 57.2 °F - 39.2 °F 51% 30.22 in 10.0 mi SSW 11.5 mph 16.1 mph N/A   Clear
9:55 PM 55.4 °F - 39.2 °F 54% 30.22 in 10.0 mi SSW 11.5 mph - N/A   Clear
10:15 PM 55.4 °F - 39.2 °F 54% 30.22 in 10.0 mi SSW 11.5 mph 17.3 mph N/A   Clear
10:35 PM 55.4 °F - 39.2 °F 54% 30.22 in 10.0 mi SSW 10.4 mph - N/A   Clear
10:55 PM 55.4 °F - 39.2 °F 54% 30.22 in 10.0 mi SSW 8.1 mph 16.1 mph N/A   Clear
11:15 PM 55.4 °F - 41.0 °F 58% 30.22 in 10.0 mi SSW 10.4 mph - N/A   Clear
11:35 PM 53.6 °F - 41.0 °F 62% 30.22 in 10.0 mi SSW 8.1 mph - N/A   Clear
11:55 PM 53.6 °F - 41.0 °F 62% 30.22 in 10.0 mi SSW 8.1 mph - N/A   Clear